Theta_e
323 323 321 320 320 319 317 315 314 312 306 304 304 302 298 300 302 305 299 295 296 297 298 302 305 305 304 294 292 291 290 290 290 292 294 295 296 297
322 320 319 318 318 318 318 315 313 310 307 304 303 308 309 305 304 304 301 298 296 302 304 304 303 298 293 292 291 289 289 289 291 293 294 295 295 296
321 319 317 317 316 316 315 314 311 307 305 308 306 307 301 300 300 301 296 298 302 304 305 302 294 293 292 290 289 288 288 289 291 292 293 294 295 296
317 316 315 314 313 312 311 308 306 306 305 305 304 304 304 302 299 296 300 302 302 301 300 296 290 288 288 288 287 287 288 289 290 291 291 292 293 293
315 314 312 310 309 308 306 305 304 305 305 305 304 303 302 300 300 300 299 300 299 297 292 288 288 287 287 287 288 288 289 289 289 290 290 290 290 291
313 311 309 308 305 304 303 303 302 302 302 302 302 301 300 299 299 298 297 290 289 289 288 287 287 286 286 288 288 288 288 288 288 289 289 289 289 289
307 304 303 303 301 300 300 301 301 300 300 299 300 298 298 298 293 288 288 288 288 288 287 286 286 286 287 287 288 288 288 288 289 289 289 289 290 290
301 301 300 299 299 299 299 299 299 299 298 297 297 296 289 288 288 288 288 288 287 286 285 285 285 287 288 288 288 289 288 288 289 289 289 289 289 289
298 298 298 297 297 297 297 297 297 296 293 290 287 288 288 288 287 287 287 286 285 284 284 287 287 288 288 289 289 289 289 289 289 289 289 288 289 289
297 297 296 296 296 296 295 290 288 286 285 286 286 285 286 286 286 286 285 284 284 284 284 286 287 288 289 289 289 289 289 289 289 289 288 288 288 288
296 296 294 290 287 286 285 284 285 286 286 287 286 285 284 284 283 283 283 283 283 285 286 286 288 288 289 290 290 290 289 288 288 287 287 287 287 287
287 286 285 284 283 283 284 285 286 287 286 286 285 283 283 283 282 283 283 284 284 284 286 286 287 286 287 290 290 289 289 288 288 288 288 287 286 286
284 284 284 284 284 284 284 284 284 284 284 283 282 282 282 283 284 284 285 285 285 285 285 285 287 287 285 286 290 289 289 289 288 288 287 287 287 286
284 284 284 283 283 283 283 282 282 282 281 281 282 282 283 284 284 284 285 285 285 285 286 285 286 286 286 286 287 289 289 289 289 288 287 286 286 286
284 283 283 283 282 282 282 281 281 281 281 282 282 284 284 285 285 285 285 286 286 286 286 286 286 286 286 285 285 288 287 289 288 287 287 286 286 286
283 282 282 282 281 281 281 281 281 282 282 283 284 285 285 285 285 286 286 286 285 286 286 286 286 285 286 284 284 286 288 285 287 287 286 286 286 286
282 282 282 281 281 281 281 281 282 283 284 285 285 285 286 286 286 286 286 285 284 285 286 287 286 285 284 284 284 286 287 287 287 287 286 286 286 287
281 281 281 281 280 280 281 281 282 284 285 285 285 285 286 286 286 286 285 285 285 285 285 286 285 283 284 285 284 286 286 286 286 286 286 286 286 286
281 281 280 280 280 280 281 281 283 284 285 285 285 285 285 285 285 285 285 284 285 285 285 284 282 282 282 282 286 284 284 285 285 285 286 286 286 286
280 280 280 280 280 280 280 281 283 284 284 284 284 284 284 284 284 284 284 284 284 284 284 285 284 283 282 282 282 283 284 285 286 286 286 286 287 286
280 280 280 280 280 280 280 281 281 283 283 284 283 283 283 283 283 284 284 284 283 283 283 285 285 283 282 282 282 284 286 285 285 285 286 286 287 287
280 280 280 280 280 280 280 280 281 282 282 282 282 282 282 282 283 283 283 283 284 284 283 284 284 283 281 281 282 283 284 285 285 285 286 286 287 287
280 280 280 280 280 280 280 281 281 281 282 282 282 282 283 283 284 284 284 284 283 283 283 283 283 283 284 282 282 282 283 284 284 285 286 286 287 286
Wind_Speed
41 43 46 47 45 45 45 42 37 28 32 30 26 31 37 36 32 31 31 28 27 24 23 27 31 32 32 31 29 29 30 29 28 24 21 20 20 20
38 39 41 42 44 44 43 43 41 35 25 26 26 28 34 37 32 34 31 29 27 27 28 32 31 31 31 31 31 30 29 27 24 20 20 20 20 21
30 34 36 35 36 37 37 37 38 36 35 33 34 29 27 30 30 29 27 27 29 31 33 30 29 32 32 33 30 28 26 24 22 20 19 19 20 20
23 28 31 32 32 32 31 30 29 30 28 26 27 21 22 27 26 27 29 31 30 27 25 27 31 30 26 25 24 23 23 21 21 20 20 20 21 21
19 22 25 27 29 27 23 21 18 17 18 17 20 21 22 26 26 28 27 25 24 24 24 23 23 25 24 23 22 22 21 21 22 23 22 22 22 23
18 18 19 19 17 14 13 10 10 11 13 16 17 18 20 21 21 22 21 19 19 19 21 23 24 25 22 19 19 19 20 21 22 23 22 22 23 24
11 9 7 6 6 8 9 8 10 11 12 14 12 14 15 17 16 14 16 16 19 20 24 26 21 18 17 19 19 19 20 20 19 20 21 22 23 25
0 1 4 7 8 8 8 8 9 10 11 11 11 13 13 11 9 11 16 20 23 22 18 20 20 17 15 15 16 15 16 17 19 20 22 23 24 26
3 2 2 2 3 4 5 6 8 10 11 10 10 10 10 11 14 17 20 22 22 19 19 22 17 17 15 15 14 14 16 17 18 18 20 23 24 25
2 1 3 4 5 6 7 7 8 8 8 9 12 12 14 15 17 18 19 21 20 19 17 25 18 17 15 14 15 15 12 13 17 19 21 24 25 25
1 3 5 5 4 5 6 7 7 6 6 10 11 12 15 16 17 17 16 17 19 18 15 18 15 21 20 17 11 11 20 20 22 23 23 24 25 26
5 4 5 6 7 6 7 8 9 11 13 15 16 16 14 13 11 11 12 14 15 17 6 14 21 22 20 17 21 23 23 24 25 25 25 25 24 26
7 8 10 9 10 11 11 10 13 14 14 15 14 12 9 8 8 10 12 14 17 19 20 18 23 23 25 31 29 27 28 27 27 27 26 23 22 21
10 11 12 13 13 13 13 13 14 15 14 11 10 9 9 10 12 15 17 19 21 22 20 21 25 23 26 31 35 31 30 28 28 25 25 25 22 22
12 13 13 13 14 13 13 13 11 10 9 8 8 9 10 12 13 16 18 19 20 19 19 19 20 21 25 30 34 35 37 33 26 31 28 29 27 24
15 14 15 14 12 11 10 8 8 7 8 9 10 12 13 15 16 17 19 20 21 21 20 19 20 22 26 28 31 37 35 37 35 32 33 34 30 27
15 13 12 11 12 11 9 8 8 8 9 11 13 13 14 16 16 17 18 20 22 24 24 23 21 21 25 29 33 36 36 36 35 35 35 38 33 29
15 13 12 12 14 13 11 10 10 11 11 12 13 15 17 17 19 19 19 20 22 23 25 25 26 27 30 34 32 33 35 38 37 38 38 39 38 33
13 12 13 14 14 13 12 12 13 12 13 14 15 16 18 20 21 22 22 23 25 25 25 25 25 26 31 36 35 29 31 35 40 40 35 36 39 38
14 15 14 13 13 13 12 14 15 14 15 16 18 19 20 22 23 24 25 27 28 29 30 29 30 29 30 35 40 42 39 40 34 37 39 39 41 41
13 13 14 14 14 13 14 15 17 17 17 19 20 22 23 24 26 27 28 28 28 29 33 33 31 28 28 31 38 42 38 32 32 35 37 40 46 44
14 14 13 14 14 14 15 16 18 18 19 20 21 23 24 26 29 29 30 32 32 33 35 35 32 31 31 31 39 41 41 38 36 37 35 35 42 43
15 15 15 15 15 16 17 18 19 20 21 22 23 24 26 28 29 30 32 32 33 34 34 36 34 34 37 36 36 41 42 43 41 41 40 37 35 41
Wind_Direction
265 264 259 257 257 257 252 250 245 243 229 217 213 222 232 242 247 250 250 247 248 256 266 274 283 284 285 286 291 292 289 288 286 284 281 280 279 278
265 267 263 262 261 261 260 257 256 248 238 227 230 240 249 249 251 253 254 254 261 272 280 284 287 288 288 290 292 291 289 288 282 278 276 275 274 274
270 275 271 270 269 267 263 260 257 249 237 243 245 240 239 247 249 256 252 259 271 278 281 284 284 284 286 290 289 288 287 282 279 277 274 273 273 275
269 274 275 270 267 264 263 261 258 254 245 243 246 240 242 246 250 251 260 268 273 277 282 281 279 280 288 289 288 286 282 281 279 279 277 274 273 273
277 274 272 270 269 268 267 263 256 243 240 242 244 245 243 248 250 258 266 273 276 279 279 279 283 292 292 287 286 282 283 283 280 277 276 274 273 274
277 276 276 274 271 266 259 252 246 237 231 230 230 236 243 248 259 267 273 276 277 279 287 292 295 291 285 282 285 283 282 281 279 279 278 277 277 277
278 273 267 255 220 220 230 241 240 242 241 238 246 253 260 264 271 278 280 285 290 300 297 295 291 284 288 290 288 284 284 284 284 282 281 277 276 275
284 185 210 201 211 231 243 251 260 264 263 260 259 264 266 272 279 277 274 284 296 304 298 300 292 294 290 295 291 295 296 291 286 284 282 281 279 276
94 105 236 235 226 251 261 265 261 265 267 264 256 255 261 259 263 265 274 284 290 297 304 305 314 306 312 305 308 305 298 293 291 290 289 286 283 279
17 314 231 238 261 277 283 277 270 274 271 263 266 271 269 274 277 281 286 290 296 303 306 299 315 310 309 311 313 304 302 306 304 302 298 293 288 283
321 306 312 320 310 288 285 293 308 307 298 291 285 283 280 278 275 278 280 284 292 299 302 287 318 316 314 317 312 313 314 315 310 304 300 295 288 283
2 337 324 318 313 304 291 280 284 279 277 276 282 288 293 291 289 282 287 286 291 304 296 309 313 319 322 320 319 319 319 318 315 312 306 301 291 281
330 324 316 315 311 302 301 293 285 286 286 289 292 295 292 291 291 288 288 289 289 285 294 296 303 308 304 305 316 324 323 322 319 317 312 306 300 291
319 315 314 314 313 312 310 304 297 295 299 296 293 294 289 283 281 281 282 281 281 283 287 285 288 296 299 300 302 317 319 321 321 323 321 314 306 297
320 316 316 315 312 310 304 301 297 294 290 286 286 287 289 295 298 296 293 290 283 277 277 282 280 287 290 290 297 306 315 324 323 324 325 318 311 301
316 316 316 317 316 318 314 307 301 297 294 296 298 297 296 296 299 302 301 301 293 290 290 292 287 282 286 291 295 300 312 305 317 321 321 317 317 312
312 315 312 313 315 316 310 308 303 298 296 298 298 301 303 303 302 304 305 302 292 295 296 297 297 291 285 285 288 296 305 306 311 316 318 316 314 314
318 318 312 314 313 311 305 300 295 292 295 298 304 307 307 308 310 311 313 310 306 304 300 301 300 300 298 294 290 298 302 304 310 312 311 307 309 315
315 315 312 311 312 307 303 302 300 298 299 303 305 307 310 312 311 311 314 313 310 310 309 307 302 297 294 289 302 296 293 298 300 303 304 304 308 316
312 313 313 311 311 305 302 301 300 301 303 305 307 310 313 312 310 310 314 314 312 311 311 312 310 306 292 289 297 297 293 297 302 304 307 310 307 312
314 310 312 311 309 304 301 302 305 306 306 308 311 312 312 311 310 312 312 312 309 304 304 307 311 307 294 292 290 295 305 307 304 303 307 303 300 296
317 315 313 308 308 306 304 303 303 304 305 305 307 307 307 306 305 308 310 310 310 310 309 312 316 314 307 300 295 299 307 312 312 307 300 293 288 283
318 316 314 312 311 309 308 307 306 306 307 309 307 305 304 304 306 307 308 309 310 310 312 312 313 312 308 303 296 295 299 303 305 300 293 299 294 296